CAPE
1237 401 75 264 376 364 306 176 158 137 91 47 56 46 3 4 2 7 6 40 64 199 256 188 397 614 806 523 316 211 163 171 0 4 2 2 1 0 1 1 1 1 3
495 103 24 2 387 364 209 154 128 70 38 69 59 22 3 3 5 3 4 1 7 13 56 65 116 328 560 595 490 498 387 294 0 0 4 3 2 1 1 1 2 2 1
363 94 171 449 355 257 130 129 94 56 7 1 2 2 1 2 2 2 2 0 1 1 8 2 5 111 50 83 51 2 4 2 0 1 3 2 3 2 2 2 0 0 0
380 484 640 529 356 226 164 125 95 62 33 2 2 0 0 0 0 2 5 5 4 4 3 1 1 1 5 51 44 19 3 2 2 2 4 4 3 2 1 2 0 0 0
516 889 755 508 350 287 171 117 96 55 35 12 0 0 0 0 0 0 5 8 6 10 4 0 0 0 0 0 3 11 6 1 4 3 3 1 2 2 1 0 2 4 0
805 1046 983 551 406 300 273 161 120 79 63 46 30 1 0 0 0 0 0 0 0 1 0 0 0 0 0 0 0 0 0 21 4 1 1 2 1 1 0 3 8 3 11
1096 1243 1182 914 697 520 377 247 161 131 107 56 52 25 0 0 0 0 0 0 0 0 0 0 0 0 4 0 0 0 0 0 15 33 24 24 13 18 14 3 9 27 36
1297 1371 1400 1127 664 324 386 247 250 201 127 93 80 49 4 0 0 0 0 1 2 1 1 0 0 0 0 0 0 0 0 0 1 4 4 7 5 7 13 15 28 20 19
1437 1667 1612 1197 813 503 405 328 279 80 76 75 82 71 3 0 0 0 0 4 4 3 1 0 0 0 0 0 0 0 0 0 0 0 0 0 0 0 0 7 41 22 29
1147 1613 1701 1165 787 602 508 402 317 93 3 10 50 46 1 0 0 0 0 2 3 3 1 0 0 0 0 0 0 0 0 0 0 0 0 0 0 0 0 0 0 0 0
1247 1764 1491 976 954 824 755 200 85 106 69 24 17 10 7 0 0 0 0 0 0 0 0 0 0 0 0 0 0 0 0 0 0 0 0 0 0 0 0 0 0 0 0
2208 1878 1413 1060 1151 973 798 275 64 259 106 10 2 0 0 0 0 0 0 0 0 0 0 0 0 0 0 0 0 0 0 0 0 0 0 0 0 0 0 0 0 0 0
999 945 1111 1101 1089 745 626 382 88 75 114 5 1 0 0 0 0 0 0 0 0 0 0 0 0 0 0 0 0 0 0 0 0 0 0 0 0 0 0 0 0 0 0
708 855 751 653 377 310 355 497 429 21 53 3 0 0 0 0 0 0 0 0 0 0 0 0 0 0 0 0 0 0 0 0 0 0 0 0 0 0 0 0 0 0 0
336 244 83 4 1 0 0 0 0 1 0 0 0 0 0 0 0 0 0 0 0 0 0 0 0 0 0 0 0 0 0 0 0 0 0 0 0 0 0 0 0 0 0
8 60 45 8 3 1 1 1 0 0 0 0 0 0 0 0 0 0 0 0 0 0 0 0 0 1 0 0 0 0 0 0 0 0 0 0 0 0 0 0 0 0 0
32 36 3 0 3 4 3 1 0 0 0 0 0 0 0 0 0 0 0 0 0 0 0 1 8 0 0 0 0 0 0 0 0 0 0 0 0 0 0 0 0 0 0
1 0 2 0 3 5 6 4 3 2 0 0 0 0 0 0 0 0 0 0 0 0 0 2 1 0 0 0 0 0 0 1 1 0 1 1 2 0 0 0 0 1 1
8 2 2 6 5 1 1 0 0 1 2 0 0 0 0 0 0 0 0 0 0 0 0 1 0 0 0 0 1 0 0 3 1 0 5 10 10 5 5 5 3 0 0
2 0 2 7 6 4 3 0 0 0 0 0 0 0 0 0 0 0 0 0 0 5 0 0 0 0 1 4 5 6 9 5 8 18 26 17 17 16 11 13 11 11 10
1 2 0 2 4 8 9 0 2 3 13 10 0 0 0 0 0 0 0 0 0 0 0 0 0 0 0 8 10 16 17 24 23 30 20 18 23 19 16 21 16 15 25
5 3 3 4 13 13 11 35 28 0 0 0 0 0 0 0 0 0 0 0 0 0 0 0 0 1 2 5 12 18 21 16 18 25 27 15 23 22 23 23 20 15 4
5 12 18 1 0 0 0 0 0 0 0 0 0 0 0 0 0 0 0 0 0 0 0 0 0 0 0 10 0 0 0 6 13 7 9 8 7 12 5 0 0 0 0
30 4 0 0 0 0 0 0 0 0 0 0 0 0 0 0 0 0 0 0 0 0 2 0 0 0 4 0 0 0 0 0 0 0 0 0 0 0 0 0 0 0 0
29 2 0 0 0 0 0 0 0 2 3 13 12 12 15 11 0 2 6 5 3 0 0 0 0 0 0 3 0 0 0 0 0 0 0 0 0 0 0 0 0 0 0
15 5 2 1 0 1 1 1 17 21 28 14 13 14 11 13 19 23 12 1 0 0 0 0 0 0 0 0 0 0 0 0 0 0 0 0 0 0 0 0 0 0 0
CIN
-35 -106 -79 -8 -17 -12 -21 -67 -64 -66 -46 -21 -20 -37 -3 -2 -2 -33 -64 -161 -115 -30 -5 -18 -0 -0 -1 -2 -8 -13 -20 -9 -0 -0 -0 -0 -0 -0 -0 -0 -0 -0 -0
-129 -208 -322 -65 -16 -12 -48 -75 -75 -69 -35 -20 -24 -17 -0 -1 -0 -0 -0 -3 -0 -161 -143 -78 -29 -1 -0 -0 -3 -0 -1 -1 -0 -0 -0 -0 -0 -0 -0 -0 -0 -0 -0
-165 -231 -72 -6 -9 -25 -58 -75 -80 -84 -16 -1 -1 -0 -0 -0 -0 -0 -1 -0 -2 -2 -0 -1 -1 -29 -39 -30 -51 -0 -0 -0 -0 -0 -0 -0 -0 -0 -0 -0 -0 -0 -0
-144 -63 -26 -9 -5 -24 -38 -45 -57 -83 -87 -0 -1 -0 -0 -0 -0 -0 -0 -1 -1 -0 -0 -0 -0 -0 -0 -72 -25 -0 -0 -0 -0 -0 -0 -0 -0 -0 -0 -0 -0 -0 -0
-98 -24 -9 -2 -7 -15 -35 -51 -42 -50 -53 -52 -0 -0 -0 -0 -0 -0 -1 -0 -0 -1 -0 -0 -0 -0 -0 -0 -0 -1 -1 -0 -0 -0 -0 -0 -0 -0 -0 -0 -0 -0 -0
-42 -2 -4 -4 -7 -14 -8 -22 -29 -43 -41 -29 -40 -1 -0 -0 -0 -0 -0 -0 -0 -0 -2 -0 -0 -0 -0 -0 -0 -0 -1 -1 -2 -0 -0 -0 -0 -0 -0 -0 -3 -1 -0
-4 -1 -1 -1 -4 -4 -4 -3 -19 -16 -19 -13 -4 -28 -0 -0 -0 -0 -0 -0 -0 -0 -0 -0 -0 -0 -2 -0 -0 -0 -0 -0 -2 -0 -0 -0 -0 -0 -0 -1 -1 -0 -0
-1 -0 -1 -5 -6 -9 -7 -10 -2 -6 -9 -10 -7 -11 -13 -0 -0 -0 -0 -1 -0 -0 -0 -0 -0 -0 -0 -0 -0 -0 -0 -0 -2 -0 -0 -0 -5 -4 -2 -2 -0 -1 -3
-1 -0 -0 -3 -8 -4 -3 -2 -3 -32 -38 -30 -18 -9 -13 -0 -0 -0 -0 -1 -1 -1 -0 -0 -0 -0 -0 -0 -0 -0 -0 -0 -0 -0 -0 -0 -0 -0 -0 -1 -1 -1 -1
-10 -0 -1 -9 -3 -4 -8 -5 -3 -13 -86 -75 -29 -28 -0 -0 -0 -0 -0 -0 -1 -2 -0 -0 -0 -0 -0 -0 -0 -0 -0 -0 -0 -0 -0 -0 -0 -0 -0 -0 -0 -0 -0
-16 -1 -0 -13 -14 -2 -0 -30 -30 -7 -20 -40 -80 -34 -0 -0 -0 -0 -0 -0 -0 -0 -0 -0 -0 -0 -0 -0 -0 -1 -0 -0 -0 -0 -0 -0 -0 -0 -0 -0 -0 -0 -0
-3 -0 -1 -4 -2 -0 -1 -24 -45 -0 -9 -64 -50 -0 -0 -0 -0 -0 -0 -0 -0 -0 -0 -0 -0 -0 -0 -0 -0 -0 -0 -0 -0 -0 -0 -0 -0 -0 -0 -0 -0 -0 -0
-98 -64 -16 -2 -0 -3 -1 -7 -43 -34 -3 -0 -1 -0 -0 -0 -0 -0 -0 -0 -0 -0 -0 -0 -0 -0 -0 -0 -0 -0 -0 -0 -0 -0 -0 -0 -0 -0 -0 -0 -0 -0 -0
-116 -68 -46 -31 -64 -61 -24 -0 -0 -91 -23 -0 -0 -0 -0 -0 -0 -0 -0 -0 -0 -0 -0 -0 -0 -0 -0 -0 -0 -0 -0 -0 -0 -0 -0 -0 -0 -0 -0 -0 -0 -0 -0
-182 -179 -217 -157 -0 -0 -0 -0 -0 -0 -0 -0 -0 -0 -0 -0 -0 -0 -0 -0 -0 -0 -0 -0 -0 -0 -0 -0 -0 -0 -0 -0 -0 -0 -0 -0 -0 -0 -0 -0 -0 -0 -0
-270 -213 -205 -156 -0 -0 -0 -0 -0 -0 -0 -0 -0 -0 -0 -0 -0 -0 -0 -0 -0 -0 -0 -0 -0 -1 -0 -0 -0 -0 -0 -0 -0 -0 -0 -0 -0 -0 -0 -0 -0 -0 -0
-236 -222 -105 -2 -0 -0 -0 -0 -0 -0 -0 -0 -0 -0 -0 -0 -0 -0 -0 -0 -0 -0 -0 -0 -2 -0 -0 -0 -0 -0 -0 -0 -0 -0 -0 -0 -0 -0 -0 -0 -0 -0 -0
-0 -0 -1 -0 -0 -0 -0 -0 -0 -0 -0 -0 -0 -0 -0 -0 -0 -0 -0 -0 -0 -0 -0 -2 -2 -0 -0 -0 -0 -0 -0 -0 -2 -0 -1 -1 -1 -0 -0 -0 -0 -3 -1
-0 -1 -1 -1 -1 -0 -0 -0 -0 -0 -0 -0 -0 -0 -0 -0 -0 -0 -0 -0 -0 -0 -0 -1 -0 -0 -0 -0 -1 -0 -0 -1 -0 -0 -1 -1 -1 -2 -2 -2 -3 -0 -0
-1 -0 -2 -1 -0 -1 -1 -0 -0 -0 -0 -0 -0 -0 -0 -0 -0 -0 -0 -0 -0 -4 -2 -0 -0 -1 -1 -0 -1 -1 -1 -6 -4 -4 -2 -3 -1 -2 -4 -1 -3 -2 -2
-3 -1 -2 -0 -1 -0 -1 -0 -12 -26 -7 -3 -0 -0 -0 -0 -0 -0 -0 -0 -0 -0 -0 -0 -0 -0 -0 -2 -0 -1 -2 -3 -1 -4 -2 -1 -1 -3 -3 -3 -3 -3 -2
-1 -1 -1 -1 -8 -19 -26 -50 -26 -0 -0 -0 -0 -0 -0 -0 -0 -0 -0 -0 -0 -0 -0 -0 -0 -2 -2 -1 -2 -2 -2 -3 -1 -2 -2 -1 -1 -2 -1 -1 -2 -3 -3
-1 -19 -1 -1 -0 -0 -0 -0 -0 -0 -0 -0 -0 -0 -0 -0 -0 -0 -0 -0 -0 -0 -0 -0 -0 -0 -3 -1 -0 -0 -0 -1 -2 -4 -17 -6 -3 -3 -1 -1 -0 -0 -0
-25 -4 -0 -0 -0 -0 -0 -0 -0 -0 -0 -0 -0 -0 -0 -0 -0 -0 -1 -0 -0 -0 -1 -0 -0 -0 -2 -0 -0 -0 -0 -0 -0 -0 -0 -0 -0 -0 -0 -0 -0 -0 -0
-22 -2 -0 -0 -0 -0 -0 -0 -1 -4 -2 -4 -7 -9 -3 -2 -2 -1 -1 -4 -4 -0 -0 -0 -0 -0 -0 -33 -0 -0 -0 -0 -0 -0 -0 -0 -0 -0 -0 -0 -0 -0 -0
-31 -8 -7 -7 -3 -2 -1 -1 -2 -4 -3 -6 -13 -2 -4 -19 -4 -5 -6 -5 -0 -0 -0 -0 -0 -0 -0 -0 -0 -0 -0 -0 -0 -0 -0 -0 -0 -0 -0 -0 -0 -0 -0
Wind_Speed
15 18 24 16 10 9 12 13 14 15 15 16 15 15 16 15 16 16 17 18 19 20 21 22 23 21 19 18 17 16 15 15 14 13 12 14 14 14 14 14 15 16 17
14 15 18 22 20 21 18 11 13 14 14 15 15 16 16 17 17 17 18 19 20 21 22 22 23 23 21 19 18 17 16 15 14 13 12 13 13 15 14 14 15 16 17
14 16 18 20 21 17 11 12 13 13 14 15 15 16 16 17 17 17 18 19 20 21 22 22 22 22 21 20 19 18 17 16 14 13 12 12 12 13 14 15 15 15 16
14 14 14 15 14 13 12 12 13 13 14 14 15 16 16 17 17 18 18 19 20 21 22 23 23 22 21 20 20 19 18 17 16 15 14 12 13 13 13 14 15 15 15
14 13 12 11 11 11 11 11 12 12 13 14 15 16 17 17 17 18 18 18 19 20 21 22 23 23 22 21 20 20 18 18 17 16 15 14 13 13 13 13 15 14 15
13 13 11 10 9 9 9 9 10 11 12 13 15 16 16 17 17 17 17 17 18 19 19 20 19 22 23 23 22 22 20 18 17 16 15 14 13 13 13 13 14 15 17
11 11 10 8 7 8 7 8 9 10 11 13 14 14 15 15 16 16 18 17 17 18 19 19 20 21 20 20 21 21 21 21 19 17 16 16 15 14 15 15 16 17 18
10 11 12 11 9 9 7 7 9 11 11 12 12 13 14 15 15 15 17 16 17 17 18 19 19 19 20 20 20 20 20 20 20 19 19 18 18 18 17 15 16 17 17
9 10 11 12 10 12 12 12 10 7 8 14 12 11 12 13 14 15 18 15 16 16 18 19 18 18 20 21 18 18 19 19 20 20 20 20 20 20 20 18 16 16 18
7 7 8 8 10 12 10 10 12 13 13 13 9 9 11 11 13 15 18 14 14 15 16 17 19 19 19 20 17 17 18 18 17 17 18 18 18 20 21 22 22 22 22
5 6 5 5 6 8 8 8 8 8 11 10 8 9 10 11 11 14 17 14 14 14 15 16 18 19 19 19 20 18 17 16 17 16 17 18 18 18 21 22 22 23 22
10 8 5 3 3 4 3 4 6 6 7 8 8 8 8 10 11 13 15 14 13 13 15 15 16 17 19 19 19 17 17 17 17 17 19 20 21 21 21 22 20 21 20
13 12 7 6 4 3 1 1 3 1 2 2 3 4 8 12 12 12 13 12 13 13 14 13 14 16 17 19 18 17 17 17 18 19 20 21 21 20 19 17 17 17 15
13 14 15 13 15 16 17 15 8 4 4 3 4 4 7 8 10 10 10 10 11 12 11 10 13 16 17 17 15 17 19 19 20 20 20 20 19 20 21 22 22 22 22
15 15 16 17 18 19 20 19 15 11 8 6 5 3 4 5 7 8 7 9 9 8 8 10 12 12 13 14 16 17 17 16 18 19 19 19 20 20 21 21 22 22 21
19 19 18 17 18 17 17 16 18 14 10 8 5 2 6 10 9 8 9 8 7 7 8 10 11 12 13 14 14 15 15 16 18 19 20 20 20 21 23 20 21 21 21
16 16 17 18 18 16 15 13 13 13 11 8 4 5 8 9 8 7 7 6 7 6 9 9 11 12 12 13 13 13 13 16 16 18 19 20 20 20 19 21 20 20 21
13 16 14 13 15 14 12 11 10 8 7 6 8 9 8 7 7 7 6 6 8 5 9 10 9 10 10 11 11 12 13 13 14 17 18 19 20 21 21 21 20 20 22
14 17 15 14 12 10 8 7 6 6 7 6 7 8 7 7 7 6 5 6 6 5 6 8 8 8 9 9 11 13 15 15 17 18 17 18 20 21 21 20 21 18 18
15 16 15 16 12 9 8 7 5 4 3 3 5 5 3 4 7 7 5 5 7 7 6 7 7 8 8 10 11 11 10 10 10 12 15 21 21 20 21 21 21 22 20
18 14 11 12 14 11 10 7 5 4 3 6 5 3 2 4 6 5 5 4 6 7 7 7 6 7 8 8 9 9 11 13 14 15 17 17 19 21 21 21 21 21 20
17 16 13 12 10 9 7 7 7 7 6 5 6 6 2 4 8 6 6 6 5 6 6 6 7 6 7 8 8 10 14 18 18 18 17 20 21 20 21 22 21 22 24
16 14 13 13 13 13 12 9 7 6 5 5 5 6 4 5 8 8 8 7 6 6 6 8 9 11 11 11 13 16 17 19 21 20 19 20 20 21 24 25 23 20 21
20 16 14 13 12 10 10 9 8 7 6 6 6 5 4 6 8 9 9 7 7 6 8 9 11 13 14 12 13 14 15 18 18 18 18 20 21 22 22 22 21 20 21
19 16 15 14 12 11 10 10 9 8 8 9 10 12 9 11 13 12 11 9 8 9 10 10 10 11 12 13 13 15 16 18 20 21 21 21 22 22 21 19 19 20 21
15 18 18 17 14 12 11 9 10 10 10 10 13 10 11 13 14 13 12 8 10 11 11 10 11 11 11 12 12 13 16 19 21 23 23 21 19 19 19 19 20 21 21
Wind_Direction
32 24 325 239 311 352 293 287 326 337 343 345 330 337 339 331 329 338 346 348 355 1 359 2 6 23 39 45 58 69 62 62 68 46 28 27 27 7 352 350 339 344 358
43 51 71 117 158 169 207 324 342 342 343 349 348 347 352 352 345 347 355 356 359 6 8 6 12 23 28 27 30 34 34 37 57 64 54 41 39 26 11 18 11 355 4
60 74 91 116 120 99 21 359 356 359 351 349 353 353 354 353 354 357 3 5 7 4 8 12 8 15 20 20 22 21 22 30 38 55 47 31 30 27 24 18 15 15 15
69 74 80 111 71 68 42 29 16 11 7 358 357 1 358 356 353 357 360 6 12 16 17 16 15 13 9 14 25 27 25 26 34 41 44 39 34 35 31 24 16 19 19
77 84 91 60 63 56 49 37 23 13 13 13 10 5 1 356 353 350 5 9 12 16 21 22 21 20 15 9 12 12 34 32 35 38 37 35 31 30 24 22 13 17 13
91 91 75 50 46 43 35 18 15 17 14 8 5 2 359 2 352 349 3 14 16 17 19 25 35 27 22 20 19 17 15 32 38 33 35 28 29 26 24 18 11 6 359
89 90 79 55 47 40 21 16 355 349 351 352 354 1 4 5 360 357 353 16 19 19 15 13 15 13 16 22 22 21 16 13 19 24 22 19 22 18 15 9 4 360 357
83 91 90 93 100 71 41 20 350 332 340 345 343 2 11 8 2 360 355 17 19 18 17 14 12 13 3 7 17 18 16 9 8 14 13 12 10 8 12 14 7 4 3
87 99 111 102 88 110 111 103 33 46 1 309 333 345 360 7 8 356 344 12 11 10 6 354 9 9 358 358 20 20 20 21 21 24 22 18 13 5 360 356 357 354 351
101 94 106 97 112 128 115 100 84 88 109 119 79 26 1 9 5 353 340 5 6 8 8 6 359 0 357 356 15 15 11 15 16 19 17 17 17 14 9 359 354 350 348
74 57 90 111 109 134 122 99 82 78 106 96 79 44 20 22 6 352 341 357 355 353 1 3 3 1 1 357 358 5 10 11 14 13 11 9 12 17 9 6 3 356 351
0 12 38 57 99 117 83 111 130 119 106 107 99 82 36 5 6 353 343 355 1 1 358 4 10 9 7 5 6 7 5 2 4 7 4 3 360 1 5 3 6 3 3
339 341 344 347 341 344 345 47 156 137 73 96 101 57 357 337 346 351 352 355 354 356 359 9 15 13 14 12 11 11 6 7 5 2 360 360 0 6 7 10 7 8 10
338 336 334 330 320 316 313 315 312 272 296 298 317 333 343 345 350 351 353 358 0 0 10 18 8 1 4 9 14 10 5 3 2 1 1 3 8 6 3 2 358 357 356
330 328 324 317 313 311 311 312 313 307 293 285 301 315 343 348 350 354 0 358 2 12 19 7 2 3 5 6 6 5 9 13 8 8 7 5 4 3 1 1 360 358 357
322 320 318 319 317 316 317 321 323 321 321 318 312 320 337 341 353 351 353 2 16 11 3 359 356 356 355 358 2 9 14 13 10 7 4 3 2 2 358 1 2 2 1
329 328 322 313 314 314 317 322 326 336 343 342 341 326 327 336 348 357 4 14 1 2 350 349 351 356 360 5 9 10 16 9 8 5 4 5 4 2 6 4 3 2 0
339 332 334 332 322 316 322 328 328 325 330 328 328 325 332 344 351 357 8 5 350 341 336 342 352 357 3 7 9 10 7 10 12 4 4 2 3 1 1 359 360 1 357
333 325 323 325 333 339 347 348 356 346 334 328 327 330 335 341 353 358 2 350 355 350 342 346 355 2 3 4 1 357 353 358 359 357 360 1 359 358 356 357 356 357 359
326 324 318 311 316 324 332 338 343 348 351 344 331 330 343 344 337 336 337 336 336 334 347 350 358 357 359 355 355 354 0 5 4 2 357 351 350 354 352 351 350 349 349
317 323 313 312 306 308 314 318 326 329 326 329 329 3 41 345 343 347 350 338 336 345 349 351 356 1 351 355 349 350 349 347 347 347 345 348 348 346 347 346 346 345 345
312 310 307 301 297 294 298 301 308 314 321 328 344 345 33 332 336 350 349 350 352 353 359 358 345 350 348 343 342 344 339 334 336 338 341 342 342 343 342 341 340 340 339
309 304 305 301 302 301 301 304 307 309 315 322 335 341 334 336 337 341 342 345 349 346 343 341 334 333 335 339 337 332 329 330 333 337 336 336 337 336 334 333 334 336 337
302 299 298 298 300 297 292 294 298 304 306 309 313 319 329 325 329 332 332 336 336 330 335 336 330 326 329 332 332 333 337 336 337 336 337 335 334 332 332 332 332 333 335
304 300 295 294 293 290 285 288 289 289 291 300 305 311 316 323 313 321 326 322 327 327 323 319 318 319 323 322 326 335 336 336 334 332 331 330 330 330 330 332 334 334 335
300 303 299 297 296 291 287 281 286 291 293 292 308 307 309 314 316 323 323 319 316 317 321 321 322 319 318 323 327 330 334 332 331 329 329 328 329 330 331 331 332 332 333